Wind_Speed
25 24 24 24 24 23 24 23 24 23 22 20 20 18 18 18 18 18 18 17 17 17 18 19 19 20 20 20 21 21 21 22 22 23 23 22 22 22 22 22 23 23 23 24
28 27 27 26 25 25 25 26 27 25 24 23 22 22 21 20 19 20 20 20 20 20 21 21 22 23 23 22 22 23 24 25 25 25 25 24 24 24 24 25 25 25 26 27
29 29 28 28 26 27 27 27 27 28 26 25 24 23 23 22 21 22 23 22 23 23 23 23 24 23 23 24 25 26 26 27 27 27 26 26 26 26 26 27 27 28 28 28
30 29 31 28 27 28 29 29 28 28 29 28 26 25 26 26 26 25 25 27 26 26 26 26 26 26 26 26 26 27 28 28 28 28 28 27 27 28 28 28 29 29 29 29
32 32 31 29 27 27 29 29 28 28 28 28 28 28 27 28 28 28 28 29 28 27 27 27 27 28 27 27 27 28 30 30 29 29 29 29 29 29 29 30 30 30 30 31
33 34 33 30 29 28 29 29 28 28 29 28 28 29 29 29 30 30 31 30 30 30 29 29 29 30 29 30 30 30 31 31 31 31 31 31 31 31 31 31 31 31 32 32
33 34 35 32 30 30 31 30 29 28 28 29 29 30 30 30 31 31 31 31 32 32 32 32 32 32 31 31 31 32 32 32 32 32 32 32 32 33 33 33 33 33 33 34
34 35 34 32 32 32 32 32 30 29 30 30 31 31 32 31 31 30 31 32 32 33 33 34 34 34 34 34 33 34 34 34 34 34 34 34 34 34 35 34 34 35 35 36
34 34 33 32 32 32 32 33 33 33 32 32 33 33 34 33 33 32 32 33 33 33 34 35 35 35 35 35 36 36 35 35 35 36 35 35 35 35 35 35 35 36 37 36
34 33 32 32 32 32 33 34 34 34 34 33 33 34 33 33 34 33 34 34 35 35 35 35 36 36 37 37 37 37 37 36 36 36 36 36 36 36 36 36 37 37 37 37
34 34 33 33 33 33 34 34 35 35 35 35 35 35 35 34 34 34 34 34 35 36 37 37 37 37 37 38 38 38 38 38 38 37 37 37 36 36 36 37 37 37 36 35
33 33 33 33 34 34 35 35 35 36 36 36 35 36 36 36 35 36 36 36 36 37 38 38 38 38 37 38 38 38 38 38 37 37 37 37 36 36 36 37 37 38 37 35
33 33 33 34 35 35 35 36 36 36 36 36 36 36 36 36 36 36 36 36 36 37 38 38 37 37 37 38 38 37 37 37 37 36 36 36 36 36 36 37 37 37 36 36
34 34 34 35 36 36 36 36 36 35 35 35 36 36 37 36 36 36 36 36 36 37 37 37 36 36 37 37 37 37 36 36 36 36 36 36 36 36 37 37 36 36 36 36
34 34 35 34 35 35 35 35 35 35 35 34 35 35 35 35 35 35 35 35 35 35 35 35 35 36 36 35 35 35 35 35 35 35 35 36 36 36 36 36 36 35 35 35
33 34 34 33 33 34 34 34 34 34 34 34 33 33 33 33 34 34 35 35 35 35 35 34 34 35 35 34 34 35 34 34 35 35 35 35 35 34 34 35 35 35 35 34
32 32 32 33 34 34 33 33 33 33 33 32 32 33 33 34 34 35 35 35 35 35 34 34 34 33 34 33 34 33 32 32 32 33 34 34 34 34 35 35 34 34 33 33
32 33 33 33 33 33 33 32 32 32 32 33 33 33 33 34 34 35 34 34 35 34 33 33 33 33 32 32 31 31 31 31 31 32 32 33 33 33 33 32 31 31 32 32
30 31 31 31 31 32 31 31 31 31 32 33 33 32 32 33 33 33 33 33 32 32 32 32 31 30 30 30 30 30 30 30 30 30 30 30 31 31 31 30 30 30 31 31
28 29 30 31 31 31 31 31 32 32 32 32 32 32 32 32 32 31 31 31 31 31 30 29 28 29 29 29 29 29 28 28 27 27 28 29 29 30 30 29 29 30 29 29
27 28 29 29 30 29 29 30 30 29 29 30 31 30 30 30 30 29 29 29 30 29 28 28 28 27 26 27 27 27 27 27 25 25 27 27 28 28 28 27 27 28 28 28
25 26 26 26 27 27 27 27 28 27 27 28 28 27 27 28 27 27 27 28 28 28 26 26 25 25 24 25 26 27 26 25 25 25 26 26 26 26 27 27 26 26 26 26
23 23 23 23 23 23 23 24 25 25 26 25 25 25 25 24 24 24 25 25 25 25 25 24 23 24 23 22 23 24 24 24 23 24 24 24 25 26 26 25 24 24 25 26
20 20 21 22 22 22 22 22 23 23 23 23 22 23 23 22 22 23 23 23 22 22 22 22 21 21 21 21 21 21 21 21 21 22 22 22 23 23 23 23 23 23 24 25
18 18 19 20 19 19 19 20 20 21 21 20 20 20 19 19 20 21 21 19 19 19 18 19 18 19 19 19 18 18 19 20 20 21 20 20 20 21 22 22 22 23 24 24
15 16 16 16 17 17 17 17 18 18 19 18 18 17 18 18 18 18 17 16 15 16 16 17 17 17 17 17 17 17 18 18 19 20 20 20 20 21 21 21 22 22 22 21
14 14 14 14 14 15 15 15 14 15 15 15 16 17 17 16 15 15 15 15 15 16 16 17 17 17 16 16 17 17 18 19 19 20 20 21 21 21 21 21 22 22 21 21
Wind_Direction
244 245 244 244 245 247 249 255 260 263 261 262 267 268 268 267 272 278 282 289 293 293 293 294 294 294 292 294 295 296 298 299 300 300 301 299 297 298 300 301 303 302 302 303
248 246 246 246 247 251 253 254 257 258 260 260 264 265 266 267 271 275 281 287 288 288 289 289 288 290 290 290 291 292 294 296 298 299 298 297 295 295 296 298 299 300 300 301
249 249 250 251 250 251 255 257 259 257 259 261 262 264 267 268 270 274 276 281 285 285 286 287 286 288 287 288 290 291 292 294 295 295 295 295 295 294 295 296 298 300 301 301
250 251 252 253 251 252 254 256 257 258 257 261 264 263 265 267 269 272 277 280 281 283 282 284 284 285 286 288 289 291 292 293 293 293 293 293 293 294 296 296 296 297 299 300
253 253 254 253 254 255 257 258 258 259 257 257 261 262 266 269 267 271 275 277 278 279 282 284 285 286 287 288 289 290 292 292 291 291 291 292 292 293 294 295 295 296 298 299
253 253 253 254 256 257 259 259 259 261 261 261 262 263 266 269 272 273 275 275 278 280 283 284 285 285 286 288 289 290 291 291 290 290 290 290 292 293 294 294 295 295 296 297
253 254 255 256 257 258 259 260 261 261 261 263 264 266 268 269 271 273 274 275 277 279 281 283 285 285 286 288 288 289 290 290 289 290 290 292 293 292 292 294 294 295 295 296
253 255 256 257 258 257 259 261 261 260 262 263 265 268 270 272 274 276 275 275 278 280 282 283 284 285 286 287 288 288 289 289 289 288 289 290 291 292 292 293 293 294 295 295
253 255 257 256 257 257 258 260 261 262 262 264 266 269 272 273 274 276 277 277 277 279 281 282 284 285 285 286 287 287 286 287 288 288 288 289 290 291 291 292 293 294 294 295
254 255 256 256 256 257 258 260 262 261 264 266 267 269 271 272 273 274 276 277 278 279 280 282 284 284 283 284 285 285 286 286 287 288 288 288 289 290 291 291 291 292 293 294
255 256 256 257 256 257 259 260 261 262 265 266 268 268 269 271 273 275 277 277 278 279 281 282 282 283 284 284 284 284 285 285 286 286 287 288 288 289 290 291 292 293 294 295
255 257 258 258 258 260 260 261 261 263 264 264 265 266 267 270 274 276 277 278 279 281 281 282 282 283 285 285 285 284 284 284 284 285 285 286 287 288 289 290 291 292 294 296
256 257 258 258 259 260 262 262 262 263 264 265 264 265 267 269 272 274 275 277 278 280 281 282 283 284 285 285 285 285 284 283 283 284 284 285 286 287 287 289 291 292 292 294
257 259 261 261 260 261 263 263 263 264 264 266 266 267 268 270 271 272 273 275 277 280 281 282 283 284 285 285 285 285 284 283 283 284 285 285 286 287 288 289 290 291 291 293
256 259 261 262 261 260 261 264 264 264 265 266 268 269 270 271 272 272 273 274 278 280 282 282 282 283 284 285 284 284 283 283 283 283 285 285 285 286 288 290 291 290 291 293
257 259 262 263 262 262 263 265 265 264 265 266 267 269 271 273 274 274 274 276 279 281 282 283 283 284 284 284 284 284 283 283 284 283 284 286 286 287 290 292 292 291 291 293
258 260 261 263 264 265 265 264 264 265 266 266 267 269 270 272 274 275 277 278 279 281 282 283 283 283 282 283 283 284 285 285 286 286 287 287 287 288 290 291 290 291 292 293
257 259 262 264 265 266 265 265 266 266 266 269 271 271 271 272 274 276 277 279 280 281 282 282 282 283 283 282 283 285 288 287 287 286 287 288 288 290 292 292 292 292 293 294
258 259 261 263 264 266 266 264 265 266 266 268 271 272 274 274 274 276 277 279 282 281 281 283 284 284 283 285 287 287 289 289 288 288 289 289 290 290 292 292 292 293 293 293
260 261 261 262 263 264 264 263 265 266 267 269 271 272 274 274 274 275 277 279 281 283 284 284 284 285 284 286 287 287 288 289 288 288 288 289 289 290 292 292 291 292 292 294
262 261 261 262 263 263 265 266 266 267 268 269 271 273 274 275 276 277 279 279 282 283 283 282 283 283 283 285 285 285 288 289 290 290 290 291 291 292 294 293 292 292 293 295
263 263 262 262 263 264 266 268 266 266 267 268 270 273 275 275 275 277 278 280 281 283 283 283 283 284 285 285 285 286 288 289 292 293 294 294 294 295 295 295 294 294 295 296
265 267 264 263 264 266 268 269 268 266 267 268 269 271 272 273 274 276 278 280 282 283 285 285 286 287 287 287 288 289 290 291 295 296 297 296 296 297 297 296 295 295 296 297
266 266 265 265 266 268 271 272 269 267 267 268 270 271 271 271 274 276 277 280 283 284 286 288 289 290 290 290 291 290 292 294 298 301 300 298 298 299 299 298 297 297 299 299
266 265 263 264 266 269 270 271 271 270 268 267 269 270 269 271 275 277 278 281 283 284 286 291 293 293 292 291 291 293 295 297 300 302 301 300 299 299 299 299 300 301 302 302
268 266 265 268 271 272 273 274 273 271 268 266 268 272 273 274 278 279 278 281 285 285 287 292 295 295 295 294 294 295 297 299 301 303 302 303 303 302 303 305 307 308 309 308
270 271 273 272 273 271 271 272 273 273 270 268 268 270 272 276 281 280 276 278 282 283 286 290 294 296 298 299 296 295 297 300 302 302 302 303 305 306 306 307 308 309 309 310
Height
5892 5894 5895 5896 5898 5898 5898 5898 5898 5898 5898 5899 5899 5899 5899 5899 5899 5898 5898 5898 5897 5896 5895 5894 5893 5892 5890 5889 5887 5885 5883 5881 5879 5877 5875 5873 5871 5868 5866 5863 5861 5858 5855 5852
5885 5887 5888 5889 5891 5892 5892 5892 5892 5892 5892 5893 5894 5894 5893 5893 5893 5893 5893 5893 5892 5891 5890 5889 5888 5886 5885 5883 5882 5880 5878 5876 5874 5871 5869 5867 5865 5862 5860 5857 5855 5852 5849 5846
5877 5879 5880 5882 5885 5885 5885 5885 5886 5886 5887 5887 5887 5887 5888 5887 5887 5888 5888 5887 5887 5886 5885 5884 5882 5880 5879 5877 5876 5874 5872 5870 5867 5865 5863 5861 5858 5856 5853 5850 5847 5844 5842 5839
5869 5872 5872 5878 5877 5877 5877 5878 5879 5879 5879 5880 5881 5881 5881 5881 5881 5882 5881 5880 5880 5879 5878 5877 5875 5874 5873 5871 5870 5868 5865 5863 5860 5857 5855 5853 5851 5848 5845 5843 5840 5837 5834 5831
5861 5862 5864 5868 5869 5870 5870 5870 5871 5871 5872 5873 5874 5874 5874 5875 5875 5875 5874 5873 5872 5871 5870 5869 5868 5867 5865 5864 5862 5860 5857 5855 5852 5850 5847 5845 5842 5840 5837 5835 5832 5829 5826 5823
5853 5854 5855 5860 5861 5861 5862 5863 5864 5864 5864 5865 5866 5866 5868 5868 5868 5868 5867 5866 5864 5863 5862 5861 5860 5858 5857 5855 5854 5851 5849 5846 5844 5841 5838 5835 5833 5831 5828 5826 5823 5820 5817 5814
5844 5845 5847 5851 5852 5853 5855 5856 5856 5856 5857 5857 5858 5859 5860 5859 5859 5859 5858 5858 5856 5854 5853 5852 5851 5850 5848 5846 5844 5842 5840 5837 5835 5832 5829 5826 5824 5821 5819 5817 5814 5811 5809 5805
5835 5837 5840 5842 5843 5845 5845 5846 5847 5847 5848 5849 5849 5850 5850 5851 5850 5850 5850 5849 5847 5846 5845 5843 5842 5840 5838 5836 5835 5833 5830 5828 5825 5823 5820 5817 5815 5812 5809 5807 5804 5801 5798 5795
5827 5830 5831 5832 5833 5834 5835 5836 5837 5838 5839 5840 5840 5841 5841 5841 5841 5840 5840 5839 5838 5837 5835 5833 5832 5830 5828 5827 5824 5822 5820 5817 5815 5813 5810 5808 5805 5803 5800 5797 5794 5791 5788 5785
5817 5819 5821 5823 5824 5824 5826 5827 5828 5829 5829 5830 5830 5831 5831 5831 5831 5830 5830 5829 5828 5827 5825 5824 5822 5820 5818 5816 5813 5811 5809 5807 5805 5802 5800 5797 5795 5792 5790 5787 5784 5781 5778 5774
5808 5810 5812 5813 5814 5815 5816 5817 5818 5819 5820 5820 5820 5821 5821 5821 5821 5820 5820 5819 5818 5816 5815 5813 5811 5809 5807 5804 5802 5800 5797 5795 5793 5791 5789 5787 5785 5782 5780 5777 5774 5771 5768 5764
5799 5801 5802 5804 5805 5806 5806 5807 5808 5809 5810 5810 5810 5810 5811 5811 5811 5810 5810 5808 5807 5805 5804 5802 5800 5798 5795 5793 5790 5787 5785 5783 5781 5779 5777 5775 5774 5772 5769 5766 5764 5761 5758 5755
5790 5791 5792 5793 5794 5795 5796 5797 5797 5798 5799 5799 5799 5800 5800 5801 5800 5800 5798 5797 5796 5794 5792 5790 5788 5786 5784 5781 5778 5775 5773 5771 5770 5768 5766 5764 5762 5761 5758 5756 5753 5750 5748 5745
5780 5781 5782 5783 5784 5784 5785 5786 5786 5787 5788 5788 5789 5789 5789 5789 5789 5788 5787 5787 5785 5784 5782 5780 5777 5775 5772 5770 5767 5764 5762 5760 5758 5757 5755 5753 5752 5750 5747 5745 5743 5740 5738 5735
5771 5772 5772 5772 5773 5774 5775 5776 5776 5777 5778 5778 5778 5778 5778 5778 5778 5777 5776 5776 5774 5773 5771 5769 5767 5764 5761 5759 5756 5753 5751 5749 5748 5746 5745 5743 5741 5739 5737 5734 5732 5730 5728 5725
5761 5761 5762 5762 5763 5764 5765 5766 5766 5767 5767 5767 5768 5768 5768 5767 5767 5767 5766 5765 5764 5762 5761 5759 5756 5753 5751 5748 5745 5743 5741 5739 5738 5736 5735 5733 5731 5729 5727 5724 5722 5720 5718 5716
5751 5752 5753 5754 5754 5755 5755 5756 5756 5757 5757 5757 5757 5758 5758 5757 5757 5756 5755 5754 5753 5752 5750 5748 5746 5743 5740 5738 5735 5733 5731 5730 5728 5726 5725 5723 5721 5719 5717 5714 5712 5711 5709 5706
5742 5743 5744 5744 5745 5745 5746 5747 5747 5747 5748 5748 5748 5748 5748 5747 5747 5746 5745 5743 5742 5741 5739 5737 5735 5733 5730 5728 5726 5724 5722 5720 5719 5717 5715 5714 5712 5709 5706 5705 5704 5702 5699 5697
5733 5733 5734 5734 5735 5735 5736 5737 5737 5737 5737 5737 5737 5737 5737 5737 5736 5735 5734 5733 5732 5731 5729 5727 5725 5723 5721 5719 5717 5715 5713 5712 5710 5708 5706 5705 5702 5701 5698 5697 5695 5693 5690 5688
5724 5724 5724 5725 5725 5726 5726 5726 5726 5727 5727 5727 5727 5727 5727 5727 5726 5725 5725 5724 5723 5721 5720 5718 5716 5714 5712 5710 5709 5707 5705 5703 5701 5700 5698 5696 5694 5692 5689 5688 5686 5684 5682 5680
5715 5714 5715 5715 5716 5716 5716 5716 5716 5717 5717 5717 5717 5717 5717 5717 5716 5716 5715 5715 5714 5712 5711 5709 5708 5706 5704 5702 5700 5699 5697 5695 5694 5692 5690 5688 5686 5684 5682 5680 5678 5676 5674 5671
5706 5705 5706 5706 5707 5707 5708 5707 5707 5708 5708 5708 5708 5708 5708 5708 5707 5707 5706 5706 5705 5704 5702 5701 5700 5698 5696 5694 5693 5692 5690 5688 5686 5685 5683 5681 5679 5677 5674 5672 5670 5668 5666 5663
5698 5698 5698 5699 5699 5700 5700 5699 5699 5699 5700 5700 5700 5700 5700 5699 5698 5699 5699 5698 5697 5696 5695 5693 5692 5690 5689 5687 5686 5685 5683 5682 5680 5678 5675 5673 5672 5669 5667 5664 5662 5660 5658 5656
5691 5691 5692 5692 5692 5693 5693 5692 5692 5692 5692 5692 5692 5692 5691 5691 5692 5691 5691 5690 5689 5688 5687 5686 5685 5683 5682 5681 5680 5678 5677 5675 5673 5671 5669 5667 5665 5663 5660 5658 5655 5653 5651 5649
5684 5684 5684 5685 5685 5686 5686 5685 5685 5685 5686 5685 5685 5684 5684 5684 5685 5684 5684 5684 5683 5682 5681 5680 5678 5677 5676 5676 5674 5673 5671 5670 5668 5666 5664 5661 5658 5656 5654 5652 5649 5647 5644 5642
5678 5677 5677 5678 5679 5679 5679 5679 5679 5679 5679 5679 5680 5680 5679 5679 5679 5679 5678 5678 5677 5677 5676 5675 5674 5672 5671 5670 5669 5667 5666 5664 5662 5660 5658 5655 5653 5651 5648 5646 5643 5641 5638 5635
5674 5673 5673 5673 5673 5674 5674 5674 5674 5674 5674 5674 5674 5675 5675 5675 5674 5674 5674 5674 5673 5672 5672 5670 5669 5668 5667 5665 5664 5663 5661 5659 5656 5654 5652 5650 5647 5645 5643 5640 5638 5635 5633 5630